Home > Time Zones > World Clock > Weather > Iran > Kerman > Past weeks

Flag for Iran Weather past 2 weeks in Kerman, Iran

Now
86 °F

Sunny.


Feels Like: 83 °F
Forecast: 62 / 95 °F
Wind: 9 mph from North

Location: Kerman Airport

Current Time: Jul 6, 2015 at 9:27:41 AM

Latest Report: Jul 6, 2015 at 8:30 AM


Visibility: 10 mi

Pressure: 30.04 "Hg (24.63 "Hg at 1762m altitude)

Humidity: 18%

Dew point: 37 °F

Location of KermanLocation

Historic Weather in Kerman — Graph

°F

Kerman temperature yesterday

Maximum temperature yesterday: 99 °F (at 4:00 PM)
Minimum temperature yesterday: 70 °F (at 3:30 AM)
Average temperature yesterday: 85 °F

Past Weeks' High & Low Weather Summary

 TemperatureHumidityPressure
High100 °F (Jun 21, 3:30 PM)33% (Jun 21, 7:30 AM)30.12 "Hg (Jun 21, 7:30 AM)
Low64 °F (Jun 22, 5:30 AM)3% (Jun 22, 5:30 PM)29.65 "Hg (Jun 27, 5:30 PM)
Average86 °F11%29.95 "Hg
* Reported Jun 21 7:30 AM — Jul 6 7:30 AM, Kerman, Weather by CustomWeather, © 2015

Note: Actual official high and low records may vary slightly from our data, if they occured in-between our weather recording intervals... More about our weather records

Advertising

Kerman weather history for previous 24 hours

 ConditionsComfort  
Time TempWeatherWind HumidityBarometerVisibility
7:30 AM
Mon, Jul 6
81 °FClear.12 mph23%30.04 "Hg5 mi
6:30 AM77 °FClear.9 mph30%30.01 "Hg5 mi
5:30 AM75 °FClear.7 mph27%30.01 "Hg5 mi
4:30 AM77 °FClear.7 mph24%30.01 "Hg5 mi
3:30 AM79 °FClear.5 mph24%30.01 "Hg4 mi
2:30 AM81 °FClear.7 mph23%30.01 "Hg4 mi
1:30 AM84 °FClear.14 mph20%30.01 "Hg4 mi
12:30 AM84 °FClear.14 mph20%30.04 "Hg5 mi
11:30 PM
Sun, Jul 5
82 °FClear.12 mph15%30.04 "Hg10 mi
10:24 PM84 °FClear.12 mph13%30.01 "Hg10 mi
9:30 PM84 °FClear.12 mph12%30.01 "Hg10 mi
8:30 PM88 °FSunny.14 mph9%30.01 "Hg10 mi
7:30 PM91 °FSunny.18 mph8%29.98 "Hg10 mi
6:30 PM95 °FSunny.16 mph6%29.98 "Hg10 mi
5:30 PM95 °FSunny.16 mph6%29.98 "Hg10 mi
4:30 PM97 °FSunny.16 mph5%29.98 "Hg10 mi
4:00 PM99 °FSunny.12 mph5%29.98 "Hg10 mi
2:30 PM97 °FSunny.14 mph5%30.01 "Hg10 mi
1:30 PM95 °FSunny.12 mph5%30.01 "Hg10 mi
12:30 PM91 °FSunny.14 mph8%30.04 "Hg10 mi
12:00 PM91 °FSunny.16 mph8%30.04 "Hg10 mi
11:30 AM91 °FSunny.21 mph8%30.04 "Hg10 mi
10:30 AM90 °FSunny.18 mph10%30.07 "Hg10 mi
10:00 AM88 °FSunny.18 mph10%30.07 "Hg10 mi
9:30 AM86 °FSunny.16 mph11%30.07 "Hg10 mi
Weather by CustomWeather, © 2015

See weather overviewHow to use our weather pages